TimeCDT,TemperatureF,Dew PointF,Humidity,Sea Level PressureIn,VisibilityMPH,Wind Direction,Wind SpeedMPH,Gust SpeedMPH,PrecipitationIn,Events,Conditions,WindDirDegrees,DateUTC
12:54 AM,60.1,54.0,80,30.11,10.0,East,5.8,-,N/A,,Clear,80,2013-08-16 05:54:00
1:54 AM,60.1,54.0,80,30.12,10.0,ENE,5.8,-,N/A,,Overcast,70,2013-08-16 06:54:00
2:54 AM,59.0,54.0,83,30.09,10.0,ENE,6.9,-,N/A,,Overcast,70,2013-08-16 07:54:00
3:54 AM,57.9,53.1,84,30.11,10.0,ENE,6.9,-,N/A,,Clear,60,2013-08-16 08:54:00
4:54 AM,57.0,53.1,87,30.11,10.0,ENE,4.6,-,N/A,,Clear,60,2013-08-16 09:54:00
5:54 AM,57.9,54.0,87,30.12,10.0,ENE,5.8,-,N/A,,Overcast,70,2013-08-16 10:54:00
6:54 AM,57.9,54.0,87,30.14,10.0,NE,6.9,-,N/A,,Overcast,50,2013-08-16 11:54:00
7:54 AM,60.1,55.9,86,30.14,10.0,East,5.8,-,N/A,,Overcast,80,2013-08-16 12:54:00
8:54 AM,63.0,55.9,78,30.16,10.0,East,4.6,-,N/A,,Overcast,80,2013-08-16 13:54:00
9:54 AM,66.9,55.9,68,30.16,10.0,ENE,3.5,-,N/A,,Scattered Clouds,70,2013-08-16 14:54:00
10:54 AM,71.1,55.9,59,30.17,10.0,Variable,4.6,-,N/A,,Overcast,0,2013-08-16 15:54:00
11:54 AM,73.0,54.0,51,30.16,10.0,ENE,9.2,-,N/A,,Scattered Clouds,60,2013-08-16 16:54:00
12:54 PM,73.9,55.0,52,30.15,10.0,NE,8.1,-,N/A,,Partly Cloudy,40,2013-08-16 17:54:00
1:54 PM,75.0,55.9,51,30.13,10.0,East,9.2,-,N/A,,Mostly Cloudy,80,2013-08-16 18:54:00
2:54 PM,75.0,55.0,50,30.13,10.0,NE,10.4,-,N/A,,Scattered Clouds,50,2013-08-16 19:54:00
3:54 PM,72.0,54.0,53,30.12,10.0,ENE,6.9,-,N/A,,Scattered Clouds,60,2013-08-16 20:54:00
4:54 PM,75.9,54.0,46,30.13,10.0,ENE,10.4,-,N/A,,Scattered Clouds,70,2013-08-16 21:54:00
5:54 PM,75.0,54.0,48,30.13,10.0,NE,5.8,-,N/A,,Partly Cloudy,40,2013-08-16 22:54:00
6:54 PM,71.1,55.9,59,30.13,10.0,East,5.8,-,N/A,,Scattered Clouds,100,2013-08-16 23:54:00
7:54 PM,69.1,54.0,58,30.14,10.0,ESE,4.6,-,N/A,,Clear,120,2013-08-17 00:54:00
8:54 PM,64.9,55.9,73,30.15,10.0,ENE,3.5,-,N/A,,Clear,70,2013-08-17 01:54:00
9:54 PM,61.0,55.0,81,30.16,10.0,NE,5.8,-,N/A,,Clear,40,2013-08-17 02:54:00
10:54 PM,57.9,54.0,87,30.16,10.0,NE,5.8,-,N/A,,Clear,50,2013-08-17 03:54:00
11:54 PM,60.1,53.1,78,30.16,10.0,ENE,6.9,-,N/A,,Clear,60,2013-08-17 04:54:00